Location: Chanteloup
(48.8560°N, 2.7390°E)
Time: 08:19:39
(UTC+00:00)

NOSS 3-1 (C) - Visible Passes

Search period start: 26 May 2022 00:00
Search period end: 05 June 2022 00:00
Orbit: 706 x 1502 km, 63.4° (Epoch: 20 May)

Date Brightness Start Highest point End Pass type
(mag) Time Alt. Az. Time Alt. Az. Time Alt. Az.
26 May 5.5 01:38:54 10° WNW 01:43:41 17° WSW 01:45:53 16° SW visible
26 May 5.1 21:10:10 10° NW 21:16:31 37° NNE 21:24:01 10° E visible
26 May 4.0 23:00:52 10° NW 23:08:14 87° SW 23:14:02 23° SE visible
27 May 5.1 00:52:30 10° WNW 00:58:40 26° WSW 01:01:23 22° SW visible
27 May 5.3 20:24:44 10° NW 20:30:39 31° NNE 20:37:34 10° E visible
27 May 4.2 22:15:31 10° NW 22:22:43 71° NE 22:29:37 17° SE visible
28 May 4.7 00:06:37 10° NW 00:13:32 38° WSW 00:16:59 28° SSW visible
28 May 4.5 21:30:10 10° NW 21:37:07 54° NE 21:45:17 10° ESE visible
28 May 4.3 23:21:00 10° NW 23:28:16 54° WSW 23:32:39 29° S visible
29 May 5.8 01:14:38 10° W 01:18:04 13° WSW 01:20:01 12° WSW visible
29 May 4.9 20:44:49 10° NW 20:51:24 42° NNE 20:59:11 10° ESE visible
29 May 4.1 22:35:32 10° NW 22:42:54 75° SW 22:48:23 25° SSE visible
30 May 5.4 00:27:36 10° WNW 00:33:08 21° WSW 00:35:45 18° SW visible
30 May 4.1 21:50:08 10° NW 21:57:27 82° NE 22:04:10 18° SE visible
30 May 5.0 23:41:30 10° WNW 23:48:04 31° WSW 23:51:33 24° SSW visible
31 May 4.4 21:04:48 10° NW 21:11:54 62° NE 21:20:01 11° ESE visible
31 May 4.6 22:55:45 10° NW 23:02:52 45° WSW 23:07:24 25° S visible
01 Jun 4.7 20:19:27 10° NW 20:26:14 48° NE 20:34:18 10° ESE visible
01 Jun 4.3 22:10:13 10° NW 22:17:33 63° SW 22:23:18 23° SSE visible
02 Jun 5.8 00:02:56 10° WNW 00:07:33 17° WSW 00:10:41 14° SW visible
02 Jun 4.1 21:24:47 10° NW 21:32:09 86° SW 21:39:16 17° SE visible
02 Jun 5.4 23:16:27 10° WNW 23:22:33 26° WSW 23:26:38 18° SSW visible
03 Jun 4.2 20:39:25 10° NW 20:46:39 72° NE 20:55:16 10° SE visible
03 Jun 4.9 22:30:33 10° NW 22:37:25 37° WSW 22:42:39 20° S visible
04 Jun 4.5 21:44:56 10° NW 21:52:10 53° WSW 21:58:43 18° S visible
04 Jun 6.0 23:38:46 10° W 23:41:56 13° WSW 23:45:15 10° SW visible
